Orbital Elements at Epoch 2459200.5 (2020-Dec-17.0) TDB
Reference: JPL 32 (heliocentric ecliptic J2000)
Element | Value | Uncertainty (1-sigma) | Units |
e | .1344581344210342 | 3.923e-08 | |
a | 2.579241532820476 | 7.6341e-09 | au |
q | 2.232441528096186 | 1.022e-07 | au |
i | 2.643579849563504 | 3.7944e-06 | deg |
node | 337.4550289872034 | 7.5005e-05 | deg |
peri | 21.59234155957911 | 7.5982e-05 | deg |
M | 25.67061033436331 | 1.1149e-05 | deg |
tp | 2459092.612745649052 (2020-Aug-31.11274565) | 4.6945e-05 | TDB |
period | 1512.991357059787 4.14 | 6.7173e-06 1.839e-08 | d yr |
n | .2379392309944137 | 1.0564e-09 | deg/d |
Q | 2.926041537544766 | 8.6606e-09 | au |
|
| | Orbit Determination Parameters
Additional Information
|